When you browse on this site, cookies collect data to enhance your experience and personalize the content and advertising you see.
Visit our Privacy Policy to learn more. By continuing to use the site, you agree to this use of cookies and data.
  • In Lithuania
  • List of Countries
  • For 7 days
  • Water Temperature
  • Satellite Maps
  • Weather Map
  • Weather Widgets
  • user-avatar
    Login

    Hourly Weather Canillo

    Today, 21 July, Sunday

    Time Temperature Precipitation Wind Pressure Humidity
    00:00 +13°C° 0 mm 0 mps 623 mmHg 87%
    01:00 +14°C° 0 mm 1 mps 623 mmHg 86%
    02:00 +14°C° 0 mm 1 mps 623 mmHg 85%
    03:00 +14°C° 0 mm 1 mps 623 mmHg 83%
    04:00 +15°C° 0 mm 1 mps 623 mmHg 80%
    05:00 +15°C° 0 mm 1 mps 623 mmHg 76%
    06:00 +18°C° 0 mm 1 mps 624 mmHg 73%
    07:00 +20°C° 0 mm 1 mps 625 mmHg 64%
    08:00 +22°C° 0 mm 1 mps 626 mmHg 55%
    09:00 +24°C° 0 mm 1 mps 627 mmHg 46%
    10:00 +25°C° 0 mm 2 mps 627 mmHg 45%
    11:00 +26°C° 0 mm 2 mps 627 mmHg 44%
    12:00 +27°C° 0 mm 2 mps 628 mmHg 43%
    13:00 +26°C° 0.3 mm 2 mps 627 mmHg 45%
    14:00 +26°C° 0.3 mm 2 mps 627 mmHg 47%
    15:00 +26°C° 0.3 mm 2 mps 627 mmHg 50%
    16:00 +25°C° 0.5 mm 2 mps 626 mmHg 56%
    17:00 +24°C° 0.5 mm 1 mps 626 mmHg 63%
    18:00 +23°C° 0.5 mm 1 mps 625 mmHg 69%
    19:00 +21°C° 0.1 mm 1 mps 625 mmHg 74%
    20:00 +17°C° 0.1 mm 0 mps 625 mmHg 79%
    21:00 +15°C° 0.1 mm 0 mps 624 mmHg 83%
    22:00 +16°C° 0.1 mm 1 mps 624 mmHg 82%
    23:00 +16°C° 0.1 mm 1 mps 625 mmHg 81%

    Tomorrow, 22 July, Monday

    Time Temperature Precipitation Wind Pressure Humidity
    00:00 +16°C° 0.1 mm 1 mps 625 mmHg 80%
    01:00 +15°C° 0 mm 1 mps 624 mmHg 79%
    02:00 +15°C° 0 mm 1 mps 624 mmHg 78%
    03:00 +15°C° 0 mm 1 mps 624 mmHg 78%
    04:00 +16°C° 0 mm 1 mps 624 mmHg 76%
    05:00 +18°C° 0 mm 1 mps 625 mmHg 75%
    06:00 +18°C° 0 mm 1 mps 625 mmHg 73%
    07:00 +21°C° 0 mm 1 mps 626 mmHg 61%
    08:00 +24°C° 0 mm 1 mps 627 mmHg 49%
    09:00 +26°C° 0 mm 1 mps 628 mmHg 37%
    10:00 +27°C° 0 mm 1 mps 628 mmHg 35%
    11:00 +28°C° 0 mm 2 mps 628 mmHg 34%
    12:00 +29°C° 0 mm 2 mps 628 mmHg 32%
    13:00 +28°C° 0.1 mm 2 mps 628 mmHg 36%
    14:00 +28°C° 0.1 mm 2 mps 627 mmHg 41%
    15:00 +27°C° 0.1 mm 1 mps 627 mmHg 46%
    16:00 +26°C° 0.1 mm 1 mps 626 mmHg 51%
    17:00 +24°C° 0.1 mm 1 mps 626 mmHg 57%
    18:00 +21°C° 0.1 mm 0 mps 625 mmHg 62%
    19:00 +21°C° 0 mm 1 mps 624 mmHg 63%
    20:00 +20°C° 0 mm 1 mps 624 mmHg 64%
    21:00 +18°C° 0 mm 1 mps 624 mmHg 64%
    22:00 +18°C° 0 mm 1 mps 623 mmHg 61%
    23:00 +18°C° 0 mm 1 mps 623 mmHg 57%

    Day after tomorrow, 23 July, Tuesday

    Time Temperature Precipitation Wind Pressure Humidity
    00:00 +17°C° 0 mm 2 mps 623 mmHg 54%
    01:00 +17°C° 0 mm 2 mps 623 mmHg 52%
    02:00 +17°C° 0 mm 2 mps 623 mmHg 50%
    03:00 +17°C° 0 mm 2 mps 622 mmHg 49%
    04:00 +17°C° 0 mm 2 mps 623 mmHg 49%
    05:00 +18°C° 0 mm 2 mps 623 mmHg 50%
    06:00 +19°C° 0 mm 1 mps 623 mmHg 51%
    07:00 +22°C° 0 mm 1 mps 624 mmHg 44%
    08:00 +24°C° 0 mm 1 mps 625 mmHg 37%
    09:00 +27°C° 0 mm 1 mps 626 mmHg 30%
    10:00 +28°C° 0 mm 1 mps 626 mmHg 28%
    11:00 +29°C° 0 mm 1 mps 626 mmHg 26%
    12:00 +30°C° 0 mm 2 mps 626 mmHg 24%
    13:00 +29°C° 0 mm 2 mps 626 mmHg 27%
    14:00 +28°C° 0 mm 2 mps 625 mmHg 30%
    15:00 +28°C° 0 mm 2 mps 625 mmHg 32%
    16:00 +27°C° 0 mm 2 mps 624 mmHg 38%
    17:00 +25°C° 0 mm 2 mps 623 mmHg 45%
    18:00 +24°C° 0 mm 1 mps 623 mmHg 51%
    19:00 +22°C° 0 mm 1 mps 623 mmHg 53%
    20:00 +19°C° 0 mm 2 mps 622 mmHg 55%
    21:00 +17°C° 0 mm 2 mps 622 mmHg 57%
    22:00 +17°C° 0 mm 2 mps 622 mmHg 55%
    23:00 +18°C° 0 mm 1 mps 622 mmHg 53%

    24 July, Wednesday

    Time Temperature Precipitation Wind Pressure Humidity
    00:00 +18°C° 0 mm 1 mps 622 mmHg 51%
    01:00 +18°C° 0 mm 1 mps 621 mmHg 51%
    02:00 +16°C° 0 mm 1 mps 621 mmHg 50%
    03:00 +16°C° 0 mm 1 mps 621 mmHg 50%
    04:00 +18°C° 0 mm 1 mps 621 mmHg 51%
    05:00 +18°C° 0 mm 1 mps 622 mmHg 52%
    06:00 +19°C° 0 mm 1 mps 622 mmHg 54%
    07:00 +22°C° 0 mm 1 mps 623 mmHg 48%
    08:00 +24°C° 0 mm 1 mps 624 mmHg 41%
    09:00 +27°C° 0 mm 1 mps 625 mmHg 35%
    10:00 +27°C° 0 mm 1 mps 625 mmHg 33%
    11:00 +28°C° 0 mm 2 mps 625 mmHg 32%
    12:00 +28°C° 0 mm 2 mps 625 mmHg 30%
    13:00 +28°C° 0 mm 2 mps 624 mmHg 33%
    14:00 +27°C° 0 mm 2 mps 624 mmHg 35%
    15:00 +27°C° 0 mm 2 mps 623 mmHg 38%
    16:00 +26°C° 0 mm 2 mps 623 mmHg 43%
    17:00 +25°C° 0 mm 2 mps 622 mmHg 48%
    18:00 +24°C° 0 mm 2 mps 622 mmHg 53%
    19:00 +21°C° 0 mm 2 mps 621 mmHg 58%
    20:00 +20°C° 0 mm 1 mps 621 mmHg 63%
    21:00 +18°C° 0 mm 1 mps 620 mmHg 68%
    22:00 +18°C° 0 mm 1 mps 620 mmHg 68%
    23:00 +16°C° 0 mm 1 mps 620 mmHg 67%

    25 July, Thursday

    Time Temperature Precipitation Wind Pressure Humidity
    00:00 +16°C° 0 mm 1 mps 619 mmHg 67%
    01:00 +16°C° 0 mm 2 mps 619 mmHg 65%
    02:00 +16°C° 0 mm 2 mps 619 mmHg 63%
    03:00 +16°C° 0 mm 2 mps 619 mmHg 62%
    04:00 +16°C° 0 mm 2 mps 619 mmHg 59%
    05:00 +17°C° 0 mm 2 mps 619 mmHg 57%
    06:00 +18°C° 0 mm 2 mps 620 mmHg 54%
    07:00 +20°C° 0 mm 2 mps 621 mmHg 47%
    08:00 +24°C° 0 mm 2 mps 622 mmHg 40%
    09:00 +26°C° 0 mm 2 mps 623 mmHg 33%
    10:00 +27°C° 0 mm 2 mps 623 mmHg 31%
    11:00 +28°C° 0 mm 2 mps 623 mmHg 29%
    12:00 +29°C° 0 mm 2 mps 623 mmHg 27%
    13:00 +28°C° 0 mm 3 mps 623 mmHg 28%
    14:00 +28°C° 0 mm 3 mps 622 mmHg 29%
    15:00 +28°C° 0 mm 3 mps 622 mmHg 30%
    16:00 +27°C° 0 mm 2 mps 622 mmHg 38%
    17:00 +25°C° 0 mm 2 mps 621 mmHg 45%
    18:00 +24°C° 0 mm 2 mps 621 mmHg 53%
    19:00 +22°C° 0 mm 1 mps 620 mmHg 58%
    20:00 +20°C° 0 mm 1 mps 620 mmHg 62%
    21:00 +18°C° 0 mm 1 mps 619 mmHg 66%
    22:00 +16°C° 0 mm 1 mps 619 mmHg 68%
    23:00 +16°C° 0 mm 1 mps 620 mmHg 70%

    26 July, Friday

    Time Temperature Precipitation Wind Pressure Humidity
    00:00 +15°C° 0 mm 0 mps 620 mmHg 72%
    01:00 +15°C° 0 mm 1 mps 619 mmHg 75%
    02:00 +15°C° 0 mm 1 mps 619 mmHg 77%
    03:00 +14°C° 0 mm 1 mps 619 mmHg 79%
    04:00 +14°C° 0 mm 1 mps 619 mmHg 79%
    05:00 +14°C° 0 mm 1 mps 620 mmHg 79%
    06:00 +14°C° 0 mm 1 mps 620 mmHg 78%
    07:00 +16°C° 0 mm 1 mps 621 mmHg 74%
    08:00 +17°C° 0 mm 2 mps 621 mmHg 69%
    09:00 +18°C° 0 mm 2 mps 622 mmHg 65%
    10:00 +18°C° 0.9 mm 2 mps 622 mmHg 66%
    11:00 +18°C° 0.9 mm 2 mps 622 mmHg 68%
    12:00 +19°C° 0.9 mm 3 mps 622 mmHg 70%
    13:00 +18°C° 1 mm 2 mps 622 mmHg 75%
    14:00 +17°C° 1 mm 2 mps 621 mmHg 79%
    15:00 +16°C° 1 mm 1 mps 621 mmHg 84%
    16:00 +15°C° 1.4 mm 1 mps 621 mmHg 88%
    17:00 +14°C° 1.4 mm 1 mps 620 mmHg 92%
    18:00 +14°C° 1.4 mm 1 mps 620 mmHg 96%
    19:00 +13°C° 0.2 mm 1 mps 620 mmHg 96%
    20:00 +13°C° 0.2 mm 1 mps 621 mmHg 96%
    21:00 +12°C° 0.2 mm 1 mps 621 mmHg 96%
    22:00 +12°C° 0 mm 1 mps 621 mmHg 96%
    23:00 +12°C° 0 mm 1 mps 621 mmHg 96%
    Show more